Change the Weather History Date:

Tuesday, March 5, 2013

  Actual Average (KP67) Record (KP67)
Temperature  
Mean Temperature 24 °F -  
Max Temperature 28 °F 23 °F 30 °F (1998)
Min Temperature 19 °F 6 °F -14 °F (1997)
Degree Days  
Heating Degree Days 42    
Moisture  
Dew Point 22 °F    
Average Humidity 94    
Maximum Humidity 100    
Minimum Humidity 80    
Precipitation  
Precipitation 0.00 in - - ()
Sea Level Pressure  
Sea Level Pressure 30.22 in    
Wind  
Wind Speed 16 mph (North)    
Max Wind Speed 26 mph    
Max Gust Speed 31 mph    
Visibility 5 miles    
Events      
Averages and records for this station are not official NWS values.
T = Trace of Precipitation, MM = Missing Value Source: NWS Daily Summary

Daily Weather History Graph

Daily Weather History Graph

Search for Another Location

Airport or City:

Trip Planner

Search our weather history database for the weather conditions in past years. The results will help you decide how hot, cold, wet, or windy it might be!

Date:

Astronomy

Mar. 05, 2013 Rise Set
Actual Time 7:01 AM CST 6:22 PM CST
Civil Twilight 6:31 AM CST 6:52 PM CST
Nautical Twilight 5:57 AM CST 7:27 PM CST
Astronomical Twilight 5:22 AM CST 8:02 PM CST
Moon 2:30 AM CST (3/5) 11:48 AM CST (3/5)
Length of Visible Light 12h 21m
Length of Day
11h 21m
Last Quarter, 40% of the Moon is Illuminated
Mar 5
Last Quarter
Mar 11
New
Mar 19
First Quarter
Mar 27
Full
Apr 2
Last Quarter

Hourly Weather History & Observations

Time (CST) Temp. Windchill Dew Point Humidity Pressure Visibility Wind Dir Wind Speed Gust Speed Precip Events Conditions
12:15 AM 28.4 °F 20.4 °F 28.4 °F 100% 29.92 in 1.0 mi ENE 8.1 mph - 0.00 in   Unknown
12:35 AM 28.4 °F 19.1 °F 28.4 °F 100% 29.93 in 1.5 mi NE 10.4 mph - 0.00 in   Overcast
12:55 AM 26.6 °F 16.2 °F 26.6 °F 100% 29.93 in 1.5 mi NE 11.5 mph - 0.00 in   Overcast
1:15 AM 26.6 °F 15.7 °F 26.6 °F 100% 29.94 in 2.0 mi NE 12.7 mph - 0.00 in   Unknown
1:35 AM 26.6 °F 14.3 °F 26.6 °F 100% 29.96 in 2.0 mi NNE 16.1 mph - 0.00 in   Unknown
1:55 AM 26.6 °F 13.8 °F 26.6 °F 100% 29.97 in 1.2 mi NNE 17.3 mph - 0.00 in   Unknown
2:15 AM 26.6 °F 13.4 °F 26.6 °F 100% 29.98 in 1.5 mi North 18.4 mph - 0.00 in   Overcast
2:35 AM 26.6 °F 13.4 °F 26.6 °F 100% 29.99 in 1.8 mi North 18.4 mph - 0.00 in   Unknown
2:55 AM 24.8 °F 10.7 °F 24.8 °F 100% 30.00 in 1.8 mi North 19.6 mph - 0.00 in   Unknown
3:15 AM 24.8 °F 11.1 °F 24.8 °F 100% 30.01 in 4.0 mi North 18.4 mph - 0.00 in   Overcast
3:35 AM 24.8 °F 11.9 °F 24.8 °F 100% 30.02 in 5.0 mi North 16.1 mph - 0.00 in   Overcast
3:55 AM 24.8 °F 11.5 °F 24.8 °F 100% 30.03 in 5.0 mi North 17.3 mph - 0.00 in   Mostly Cloudy
4:15 AM 24.8 °F 12.4 °F 24.8 °F 100% 30.04 in 4.0 mi North 15.0 mph - 0.00 in   Unknown
4:55 AM 24.8 °F 12.9 °F 24.8 °F 100% 30.06 in 10.0 mi North 13.8 mph - 0.00 in   Unknown
5:15 AM 24.8 °F 11.9 °F 24.8 °F 100% 30.08 in 10.0 mi North 16.1 mph - 0.00 in   Overcast
5:35 AM 24.8 °F 11.5 °F 24.8 °F 100% 30.09 in 5.0 mi North 17.3 mph - 0.00 in   Unknown
5:55 AM 24.8 °F 11.1 °F 24.8 °F 100% 30.10 in 5.0 mi NNW 18.4 mph 24.2 mph 0.00 in   Unknown
6:15 AM 24.8 °F 11.1 °F 24.8 °F 100% 30.11 in 3.0 mi NNW 18.4 mph - 0.00 in   Overcast
6:35 AM - - - N/A% 30.12 in 3.0 mi NNW 20.7 mph - 0.00 in   Unknown
6:55 AM 26.6 °F 13.1 °F 26.6 °F 100% 30.13 in 1.8 mi NNW 19.6 mph 25.3 mph 0.00 in   Unknown
7:15 AM 24.8 °F 10.3 °F 24.8 °F 100% 30.14 in 1.5 mi NNW 20.7 mph 26.5 mph 0.00 in   Unknown
7:35 AM 24.8 °F 10.7 °F 24.8 °F 100% 30.15 in 1.2 mi North 19.6 mph - 0.00 in   Overcast
7:55 AM 23.0 °F 9.2 °F 23.0 °F 100% 30.16 in 2.5 mi North 17.3 mph - 0.00 in   Unknown
8:15 AM 23.0 °F 8.7 °F 23.0 °F 100% 30.17 in 7.0 mi NNW 18.4 mph - 0.00 in   Unknown
8:35 AM 23.0 °F 8.3 °F 21.2 °F 93% 30.19 in 7.0 mi NNW 19.6 mph - 0.00 in   Unknown
8:55 AM 21.2 °F 6.8 °F 21.2 °F 100% 30.19 in 8.0 mi NNW 17.3 mph - 0.00 in   Overcast
9:15 AM 21.2 °F 5.6 °F 19.4 °F 93% 30.21 in 6.0 mi NW 20.7 mph - 0.00 in   Unknown
9:35 AM 21.2 °F 5.2 °F 19.4 °F 93% 30.21 in 3.0 mi NNW 21.9 mph 26.5 mph 0.00 in   Unknown
9:55 AM 21.2 °F 5.2 °F 21.2 °F 100% 30.23 in 3.0 mi NNW 21.9 mph 27.6 mph 0.00 in   Unknown
10:15 AM 23.0 °F 6.9 °F 21.2 °F 93% 30.23 in 4.0 mi NNW 24.2 mph 31.1 mph 0.00 in   Overcast
10:35 AM 23.0 °F 6.9 °F 21.2 °F 93% 30.24 in 1.8 mi North 24.2 mph 28.8 mph 0.00 in   Unknown
10:55 AM 23.0 °F 7.6 °F 21.2 °F 93% 30.24 in 1.5 mi North 21.9 mph - 0.00 in   Unknown
11:15 AM 23.0 °F 6.9 °F 21.2 °F 93% 30.25 in 2.5 mi North 24.2 mph 27.6 mph 0.00 in   Overcast
11:35 AM 23.0 °F 7.2 °F 21.2 °F 93% 30.25 in 3.0 mi North 23.0 mph 28.8 mph 0.00 in   Overcast
11:55 AM 23.0 °F 7.2 °F 21.2 °F 93% 30.26 in 3.0 mi NNW 23.0 mph 26.5 mph 0.00 in   Overcast
12:15 PM 23.0 °F 8.0 °F 21.2 °F 93% 30.28 in 3.0 mi NNW 20.7 mph - 0.00 in   Unknown
12:35 PM 23.0 °F 6.9 °F 21.2 °F 93% 30.28 in 2.0 mi NNW 24.2 mph 29.9 mph 0.00 in   Unknown
12:55 PM 23.0 °F 7.6 °F 21.2 °F 93% 30.28 in 2.5 mi North 21.9 mph 29.9 mph 0.00 in   Unknown
1:15 PM 23.0 °F 7.6 °F 21.2 °F 93% 30.28 in 3.0 mi NNW 21.9 mph - 0.00 in   Unknown
1:35 PM 24.8 °F 8.7 °F 21.2 °F 86% 30.29 in 4.0 mi NNW 26.5 mph - 0.00 in   Unknown
1:55 PM 24.8 °F 9.6 °F 21.2 °F 86% 30.29 in 5.0 mi NNW 23.0 mph - 0.00 in   Unknown
2:15 PM 24.8 °F 10.3 °F 21.2 °F 86% 30.28 in 6.0 mi NNW 20.7 mph 25.3 mph 0.00 in   Unknown
2:35 PM 24.8 °F 9.6 °F 21.2 °F 86% 30.29 in 7.0 mi NNW 23.0 mph - 0.00 in   Unknown
2:55 PM 24.8 °F 10.7 °F 21.2 °F 86% 30.29 in 8.0 mi NNW 19.6 mph 24.2 mph 0.00 in   Unknown
3:15 PM 24.8 °F 10.7 °F 21.2 °F 86% 30.30 in 7.0 mi North 19.6 mph - 0.00 in   Overcast
3:35 PM 24.8 °F 11.1 °F 21.2 °F 86% 30.31 in 8.0 mi North 18.4 mph 24.2 mph 0.00 in   Unknown
3:55 PM 23.0 °F 8.3 °F 21.2 °F 93% 30.32 in 7.0 mi North 19.6 mph - 0.00 in   Unknown
4:15 PM 23.0 °F 8.7 °F 21.2 °F 93% 30.33 in 4.0 mi North 18.4 mph - 0.00 in   Unknown
4:35 PM 23.0 °F 8.0 °F 19.4 °F 86% 30.33 in 7.0 mi North 20.7 mph 25.3 mph 0.00 in   Unknown
4:55 PM 23.0 °F 8.7 °F 19.4 °F 86% 30.33 in 8.0 mi North 18.4 mph - 0.00 in   Unknown
5:15 PM 23.0 °F 10.1 °F 21.2 °F 93% 30.34 in 8.0 mi North 15.0 mph - 0.00 in   Overcast
5:35 PM 23.0 °F 10.1 °F 19.4 °F 86% 30.34 in 10.0 mi North 15.0 mph - 0.00 in   Overcast
5:55 PM 23.0 °F 11.1 °F 19.4 °F 86% 30.35 in 6.0 mi North 12.7 mph - 0.00 in   Overcast
6:15 PM 23.0 °F 11.7 °F 21.2 °F 93% 30.35 in 5.0 mi North 11.5 mph - 0.00 in   Unknown
6:35 PM 23.0 °F 10.6 °F 19.4 °F 86% 30.36 in 3.0 mi North 13.8 mph - 0.00 in   Unknown
6:55 PM 23.0 °F 11.7 °F 19.4 °F 86% 30.37 in 5.0 mi North 11.5 mph - 0.00 in   Unknown
7:15 PM 21.2 °F 8.9 °F 19.4 °F 93% 30.37 in 10.0 mi North 12.7 mph - 0.00 in   Overcast
7:35 PM 21.2 °F 10.1 °F 19.4 °F 93% 30.36 in 10.0 mi North 10.4 mph - 0.00 in   Overcast
7:55 PM 21.2 °F 10.1 °F 19.4 °F 93% 30.36 in 10.0 mi North 10.4 mph - 0.00 in   Overcast
8:15 PM 21.2 °F 10.1 °F 19.4 °F 93% 30.36 in 9.0 mi NNW 10.4 mph - 0.00 in   Unknown
8:35 PM 21.2 °F 10.1 °F 19.4 °F 93% 30.37 in 8.0 mi NNW 10.4 mph - 0.00 in   Unknown
8:55 PM 21.2 °F 10.9 °F 19.4 °F 93% 30.38 in 7.0 mi NNW 9.2 mph - 0.00 in   Overcast
9:15 PM 21.2 °F 10.9 °F 19.4 °F 93% 30.38 in 5.0 mi NW 9.2 mph - 0.00 in   Overcast
9:35 PM 21.2 °F 12.6 °F 19.4 °F 93% 30.38 in 9.0 mi North 6.9 mph - 0.00 in   Overcast
9:55 PM 21.2 °F 11.7 °F 17.6 °F 86% 30.38 in 9.0 mi North 8.1 mph - 0.00 in   Overcast
10:15 PM 21.2 °F 9.5 °F 15.8 °F 80% 30.38 in 10.0 mi North 11.5 mph - 0.00 in   Unknown
10:35 PM 19.4 °F 7.2 °F 15.8 °F 86% 30.39 in 10.0 mi North 11.5 mph - 0.00 in   Unknown
10:55 PM 19.4 °F 7.9 °F 15.8 °F 86% 30.38 in 10.0 mi North 10.4 mph - 0.00 in   Unknown
11:15 PM 19.4 °F 9.5 °F 17.6 °F 93% 30.39 in 10.0 mi North 8.1 mph - 0.00 in   Overcast
11:35 PM 19.4 °F 8.6 °F 17.6 °F 93% 30.39 in 10.0 mi North 9.2 mph - 0.00 in   Overcast
11:55 PM 19.4 °F 7.2 °F 15.8 °F 86% 30.40 in 10.0 mi North 11.5 mph - 0.00 in   Unknown